Regional Weather Roundup
Issued by NWS

Home | Current Version | Previous Version | Graphics & Text | Print | Product List | Glossary Off
Versions: 1 2 3 4 5 6 7 8 9 10 11 12 13 14 15 16 17 18 19 20 21 22 23 24 25 26 27 28 29 30 31 32 33 34 35 36 37 38 39 40 41 42 43 44 45 46 47 48 49 50

000
ASUS43 KMKX 271410
RWRWI

WISCONSIN REGIONAL WEATHER ROUNDUP
NATIONAL WEATHER SERVICE MILWAUKEE/SULLIVAN WI
900 AM CDT FRI MAR 27 2015

NOTE: "FAIR" INDICATES FEW OR NO CLOUDS BELOW 12,000 FEET WITH NO
SIGNIFICANT WEATHER AND/OR OBSTRUCTIONS TO VISIBILITY.

WIZ001-002-006>008-014>016-023>028-271500-
NORTHWEST WISCONSIN

CITY           SKY/WX    TMP DP  RH WIND       PRES   REMARKS
SUPERIOR ARPT  SUNNY     21   8  56 N3        30.30F
ASHLAND        SUNNY     21  11  65 N10       30.29R WCI  10
HAYWARD        SUNNY     19  10  68 NE6       30.25S WCI  11
SIREN          SUNNY     19   8  61 CALM      30.28S
CUMBERLAND     SUNNY     19   9  63 NE7       30.25S WCI  10
RICE LAKE      SUNNY     20   9  62 N7        30.28S WCI  11
CHETEK         SUNNY     20   8  59 N3        30.26S
LADYSMITH      SUNNY     19  10  67 NW7       30.26S WCI  10
EAU CLAIRE     SUNNY     22   8  55 N8        30.26S WCI  12
MENOMONIE      SUNNY     22   8  56 N7        30.28R WCI  13
NEW RICHMOND   SUNNY     21   9  60 N7        30.28S WCI  13
OSCEOLA        SUNNY     20  10  64 CALM      30.31F
$$

WIZ003>005-009-010-017-018-271500-
NORTH CENTRAL WISCONSIN

CITY           SKY/WX    TMP DP  RH WIND       PRES   REMARKS
MANITOWISH WTR MOSUNNY   15   6  67 N8        30.19S WCI   3
ARBOR VITAE    SUNNY     14  11  88 N8        30.19R WCI   3
WOODRUFF       SUNNY     14  11  88 N8        30.19R WCI   3
RHINELANDER    MOSUNNY   13   6  74 NE8       30.19R WCI   2
EAGLE RIVER    SUNNY     11   5  76 N5        30.19R WCI   3
LAND O LAKES   SUNNY     13   5  70 N6        30.20R WCI   4
PHILLIPS       MOSUNNY   16   8  71 NW5       30.21R WCI   8
TOMAHAWK       SUNNY     15  11  85 N5        30.21R WCI   7
MEDFORD        SUNNY     15   8  73 W6        30.20S WCI   7
MERRILL        MOSUNNY   16  10  77 N5        30.20F WCI   9
$$

WIZ029-030-035-036-043>047-271500-
CENTRAL WISCONSIN

CITY           SKY/WX    TMP DP  RH WIND       PRES   REMARKS
WAUSAU         PTSUNNY   17   7  64 N8        30.20R WCI   7
MOSINEE        PTSUNNY   18   9  68 NE12G18   30.22R WCI   5
MARSHFIELD     SUNNY     20   5  52 VRB5      30.22R WCI  13
STEVENS POINT  MOSUNNY   17   4  59 NE13G18   30.23S WCI   3
WAUPACA        SUNNY     22   5  47 N12G17    30.23R WCI  11
WAUTOMA        SUNNY     22   3  43 N12       30.23S WCI  11
WISC RAPIDS    SUNNY     21   3  45 N10       30.25R WCI  10
CAMP DOUGLAS   SUNNY     21   9  58 N7        30.24R WCI  13
$$

WIZ011>013-019>022-031-037>040-048>050-271500-
NORTHEAST WISCONSIN

CITY           SKY/WX    TMP DP  RH WIND       PRES   REMARKS
ANTIGO         SUNNY     13   6  73 N8        30.18S WCI   2
SHAWANO        SUNNY     20   8  58 N8        30.23S WCI  11
OCONTO         SUNNY     18   8  64 N10G17    30.22R WCI   6
STURGEON BAY   CLOUDY    18  10  73 N16G22    30.22R WCI   3
GREEN BAY      SUNNY     21  10  62 N15       30.22R WCI   8
MANITOWOC      SUNNY     21  10  62 N15       30.19S WCI   8
APPLETON       MOSUNNY   45   7  21 N14       30.20S
CLINTONVILLE   SUNNY     19   7  58 N12       30.23R WCI   7
OSHKOSH        SUNNY     21   7  54 N16       30.21R WCI   7
$$

WIZ032>034-041-042-053>061-271500-
SOUTHWEST WISCONSIN

CITY           SKY/WX    TMP DP  RH WIND       PRES   REMARKS
LA CROSSE      SUNNY     25  10  53 NE9       30.27R WCI  15
SPARTA         SUNNY     21  10  60 E5        30.27R WCI  15
VIROQUA        SUNNY     21  11  64 N9        30.22R WCI  11
BOSCOBEL       SUNNY     24   6  46 N6        30.26R WCI  17
PRAIRIE DU CHI SUNNY     23   6  49 CALM      30.26S
PLATTEVILLE    SUNNY     22   9  56 N8        30.22R WCI  13
$$

WIZ056-057-062-063-064-067-068-271500-
SOUTH CENTRAL WISCONSIN

CITY           SKY/WX    TMP DP  RH WIND       PRES   REMARKS
REEDSBURG      SUNNY     20  10  63 N10       30.23R WCI   9
BARABOO/DELLS  SUNNY     21   8  57 N8G16     30.22S WCI  11
LONE ROCK      SUNNY     23   7  50 N9        30.25R WCI  13
MINERAL POINT  SUNNY     21   5  49 NW6       30.21R WCI  14
MADISON        MOSUNNY   22   8  55 N14       30.21R WCI   9
MIDDLETON      MOSUNNY   24  10  54 N12       30.21S WCI  13
WATERTOWN      SUNNY     22   5  47 N13G20    30.19S WCI  10
MONROE         SUNNY     21  10  63 N7        30.19S WCI  13
JANESVILLE     SUNNY     25   5  42 N12G17    30.19S WCI  14
$$

WIZ051-052-058>065-066-070>072-271500-
SOUTHEAST WISCONSIN

CITY           SKY/WX    TMP DP  RH WIND       PRES   REMARKS
MILWAUKEE      MOSUNNY   22   6  50 N15G23    30.17S WCI   9
WAUKESHA       MOSUNNY   19   3  49 N15G23    30.18R WCI   5
MILWAUKEE/TIMM MOSUNNY   21   3  45 N13G22    30.19R WCI   9
RACINE         PTSUNNY   21   6  52 N16       30.18S WCI   7
BURLINGTON     SUNNY     21   4  47 N17G25    30.17F WCI   7
KENOSHA        SUNNY     23   6  48 N16G25    30.17R WCI  10
FOND DU LAC    SUNNY     22   7  52 N13G22    30.21R WCI  10
SHEBOYGAN      PTSUNNY   22   9  57 N14G21    30.18S WCI   9
WEST BEND      SUNNY     21   7  53 N13       30.17S WCI   9
JUNEAU         SUNNY     20   6  55 N15G22    30.20S WCI   6
$$

LSZ147-162-271500-
LAKE SUPERIOR

STATION/POSITION TIME  TEMP    WIND        PRES    WAVE
                       AIR SEA DIR/SP/G            HT/PER
                 (UTC) (F)     (DEG/KT/KT) (MB)    (FT/S)
DEVILS ISLAND    1400   18      40/  8/ 10 1027.5S
PORT WING        1340   23      60/  5/  8 1025.7S
SAXON HARBOR     1200   22      30/ 12/ 15 1024.4
$$

LMZ867-665-643>646-271500-
LAKE MICHIGAN

STATION/POSITION TIME  TEMP    WIND        PRES    WAVE
                       AIR SEA DIR/SP/G            HT/PER
                 (UTC) (F)     (DEG/KT/KT) (MB)    (FT/S)
NORTHPORT PIER   1312   15      10/ 13/ 19 1023.0R
SISTER BAY       1347   20      30/ 14/ 20   N/A
KEWAUNEE LAKESHO 1300   18     330/  9/ 11 1021.6R
SHEBOYGAN LAKESH 1400   20     340/ 20/ 22 1023.5R
PORT WASHINGTON  1300   20     340/ 10/ 14 1023.0R
MILWAUKEE LAKESH 1300   20     340/ 13/ 17   N/A
KENOSHA   LAKESH 1400   21     330/ 17/ 21 1021.7R
$$

TC  - TEMPERATURE IN CELSIUS
VSB - VISIBILITY IN STATUTE MILES
WCI - WIND CHILL INDEX
HX  - HEAT INDEX



USA.gov is the U.S. government's official web portal to all federal, state and local government web resources and services.